{"data":{"norad_id":52444,"epoch":"2026-05-25T04:27:31.692672Z","epoch_age_seconds":58920,"freshness":"FRESH","line1":"1 52444U 22048B   26145.18578348  .00095953  00000+0  79120-3 0  9999","line2":"2 52444  97.5685 257.1377 0004735 137.6271 222.5357 15.70041652225869","mean_motion":15.70041652,"eccentricity":0.0004735,"inclination_deg":97.5685,"raan_deg":257.1377,"arg_perigee_deg":137.6271,"mean_anomaly_deg":222.5357,"bstar":0.0007912,"rev_number":22586,"period_min":91.717311968485,"perigee_km":355.5879272294,"apogee_km":361.96778559842,"semimajor_km":6736.9148564139,"source":"CELESTRAK","updated_at":"2026-05-25T13:37:57.736502Z"}}